Overview Statistics Trail Chart Weather Telemetry Raw packets
 

This is the latest recevied weather packets stored in our database for station/object OK1FET-14. If no packets are shown the sender has not sent any weather packets the latest 10 day(s).

<< 47 48 49 50 51 52 53 >>
Time Temp. Humidity Pressure Rain* Wind** Luminosity Snow
1788619882 25° C 37% 1021.2 hPa - - - -
1788619601 24.44° C 38% 1021.1 hPa - - - -
1788619601 24.44° C 38% 1021.1 hPa - - - -
1788619601 24.44° C 38% 1021.1 hPa - - - -
1788619320 23.89° C 38% 1021.1 hPa - - - -
1788619320 23.89° C 38% 1021.1 hPa - - - -
1788619320 23.89° C 38% 1021.1 hPa - - - -
1788619320 23.89° C 38% 1021.1 hPa - - - -
1788619039 23.33° C 36% 1020.8 hPa - - - -
1788619039 23.33° C 36% 1020.8 hPa - - - -
1788619039 23.33° C 36% 1020.8 hPa - - - -
1788618758 23.33° C 37% 1020.8 hPa - - - -
1788618758 23.33° C 37% 1020.8 hPa - - - -
1788618758 23.33° C 37% 1020.8 hPa - - - -
1788618477 23.33° C 37% 1020.6 hPa - - - -
1788618477 23.33° C 37% 1020.6 hPa - - - -
1788618477 23.33° C 37% 1020.6 hPa - - - -
1788618477 23.33° C 37% 1020.6 hPa - - - -
1788618196 23.89° C 37% 1021.1 hPa - - - -
1788618196 23.89° C 37% 1021.1 hPa - - - -
1788618196 23.89° C 37% 1021.1 hPa - - - -
1788617915 24.44° C 39% 1021 hPa - - - -
1788617915 24.44° C 39% 1021 hPa - - - -
1788617915 24.44° C 39% 1021 hPa - - - -
1788617634 23.33° C 38% 1021.1 hPa - - - -

* Rain since midnight (hover to see other rain measurements)
** Current wind speed in m/s (hover to see current wind gust speed)